Weather History for KN60 - July, 2013

Change the Weather History Date:

Sunday, July 21, 2013

  Actual Average Record
Temperature  
Mean Temperature 69 °F -  
Max Temperature 82 °F 78 °F 91 °F (2007)
Min Temperature 56 °F 55 °F 50 °F (2010)
Cooling Degree Days 4    
Month to date cooling degree days 101  
Year to date cooling degree days 159  
Since 1 June cooling degree days 153  
Growing Degree Days 18 (Base 50)    
Moisture  
Dew Point 60 °F    
Average Humidity 79    
Maximum Humidity 100    
Minimum Humidity 58    
Precipitation  
Precipitation 0.00 in - - ()
Month to date precipitation 2.09  
Year to date precipitation 18.78  
Sea Level Pressure  
Sea Level Pressure 29.78 in    
Wind  
Wind Speed 11 mph (SSE)    
Max Wind Speed 20 mph    
Max Gust Speed 25 mph    
Averages and records for this station are not official NWS values.
T = Trace of Precipitation, MM = Missing Value Source: NWS Daily Summary

Daily Weather History Graph

Daily Weather History Graph

Search for Another Location

Airport or City:

Trip Planner

Search our weather history database for the weather conditions in past years. The results will help you decide how hot, cold, wet, or windy it might be!

Date:

Astronomy

Jul. 21, 2013 Rise Set
Actual Time 6:10 AM CDT 9:33 PM CDT
Civil Twilight 5:32 AM CDT 10:11 PM CDT
Nautical Twilight 4:42 AM CDT 11:00 PM CDT
Astronomical Twilight 3:36 AM CDT 12:05 AM CDT
Moon 8:29 PM CDT (7/21) 4:59 AM CDT (7/21)
Length of Visible Light 16h 38m
Length of Day
15h 23m
Waxing Gibbous, 98% of the Moon is Illuminated
Jul 21
Waxing Gibbous
Jul 22
Full
Jul 29
Last Quarter
Aug 6
New
Aug 14
First Quarter

Hourly Weather History & Observations

Time (CDT) Temp. Heat Index Dew Point Humidity Pressure Visibility Wind Dir Wind Speed Gust Speed Precip Events Conditions
12:52 AM 57.9 °F - 57.0 °F 97% 29.94 in - ESE 5.8 mph - N/A   Unknown
1:52 AM 57.9 °F - 57.0 °F 97% 29.94 in - ESE 9.2 mph - N/A   Unknown
2:52 AM 57.0 °F - 55.0 °F 93% 29.93 in - SE 5.8 mph - N/A   Unknown
3:52 AM 57.0 °F - 55.0 °F 93% 29.91 in - SE 6.9 mph - N/A   Unknown
4:52 AM 55.9 °F - 54.0 °F 93% 29.90 in - SE 4.6 mph - N/A   Unknown
5:52 AM 55.9 °F - 54.0 °F 93% 29.88 in - ESE 6.9 mph - N/A   Unknown
6:52 AM 55.9 °F - 54.0 °F 93% 29.88 in - SE 8.1 mph - N/A   Unknown
7:52 AM 59.0 °F - 55.0 °F 87% 29.87 in - SE 10.4 mph - N/A   Unknown
8:52 AM 62.1 °F - 55.9 °F 80% 29.86 in - SE 13.8 mph - N/A   Unknown
9:52 AM 62.1 °F - 55.9 °F 80% 29.85 in - SSE 15.0 mph - N/A   Unknown
10:52 AM 66.0 °F - 59.0 °F 78% 29.81 in - SSE 13.8 mph - N/A   Unknown
11:52 AM 70.0 °F - 63.0 °F 78% 29.79 in - SSE 12.7 mph - N/A   Unknown
12:52 PM 73.0 °F - 64.9 °F 76% 29.75 in - South 15.0 mph 20.7 mph N/A   Unknown
1:52 PM 77.0 °F - 66.0 °F 69% 29.72 in - South 13.8 mph 20.7 mph N/A   Unknown
2:52 PM 80.1 °F 82.3 °F 66.9 °F 64% 29.68 in - South 15.0 mph - N/A   Unknown
3:52 PM 81.0 °F 83.3 °F 66.9 °F 62% 29.63 in - South 17.3 mph 25.3 mph N/A   Unknown
4:52 PM 75.9 °F - 64.9 °F 69% 29.62 in - South 9.2 mph - N/A   Unknown
5:52 PM 73.0 °F - 66.9 °F 81% 29.64 in - SSW 6.9 mph - N/A   Unknown
6:52 PM 79.0 °F - 62.1 °F 56% 29.63 in - WSW 10.4 mph - N/A   Unknown
7:52 PM 77.0 °F - 64.9 °F 66% 29.65 in - WNW 9.2 mph - N/A   Unknown
8:52 PM 73.0 °F - 62.1 °F 68% 29.70 in - NNW 12.7 mph 21.9 mph N/A   Unknown
9:52 PM 66.9 °F - 61.0 °F 81% 29.73 in - NW 15.0 mph - N/A   Unknown
10:52 PM 64.0 °F - 59.0 °F 84% 29.75 in - NW 11.5 mph - N/A   Unknown
11:52 PM 63.0 °F - 59.0 °F 87% 29.76 in - WNW 8.1 mph - N/A   Unknown